Temperature
14 14 14 14 14 14 14 14 15 15 15 15 15 15 15 16 16 16 16 17 17 17 17 17 17 17 17 17 17 17 17 17 17 18 17 18 18 18 17 17 18 18 18
14 14 14 14 14 14 14 14 14 14 15 15 15 15 15 16 16 16 16 16 17 17 17 17 17 17 17 17 17 17 17 17 17 17 17 17 17 18 18 17 18 18 18
14 14 14 14 14 14 14 14 14 14 14 15 15 15 15 15 16 16 16 16 16 17 17 17 17 17 17 17 17 17 17 17 17 17 17 17 17 17 17 17 17 18 18
14 13 13 14 13 13 14 14 14 14 14 14 15 15 15 15 15 15 16 16 16 16 16 17 17 17 17 17 17 17 17 17 17 17 17 17 17 17 17 17 17 17 17
13 13 13 13 13 13 13 14 14 14 14 14 15 15 15 15 15 15 15 16 16 16 16 16 17 17 17 17 17 17 17 17 17 17 17 17 17 17 17 17 17 17 17
13 13 13 13 13 13 13 13 13 14 14 14 15 15 15 15 15 15 15 16 16 16 16 16 16 16 17 17 17 17 17 17 17 17 17 17 17 17 17 17 17 17 17
13 13 13 13 13 13 13 13 13 14 14 14 14 15 15 15 15 15 15 15 16 16 16 16 16 16 16 17 17 17 17 17 17 17 17 17 17 17 17 17 17 17 17
13 13 13 13 13 13 13 13 13 13 14 14 14 15 15 15 15 15 15 15 15 15 16 16 16 16 16 16 16 17 17 17 17 17 17 17 17 17 17 17 17 17 17
13 13 12 12 12 13 13 13 13 13 14 14 14 14 15 16 15 15 15 15 15 15 15 16 16 16 16 16 16 17 17 17 17 17 17 17 17 17 17 17 17 17 17
13 13 12 12 12 13 13 13 13 13 13 14 14 14 14 14 15 15 15 15 15 15 15 15 15 16 16 16 16 16 17 17 17 17 17 17 17 17 17 17 17 17 17
13 13 13 12 12 13 13 13 13 13 13 13 14 14 14 14 15 15 15 14 15 15 15 15 15 15 16 16 16 16 16 16 16 16 16 17 17 17 17 17 17 17 17
13 13 13 13 12 12 12 13 13 13 13 13 13 14 14 14 14 15 15 14 14 14 15 15 15 15 16 16 16 16 16 16 16 16 16 16 16 17 17 17 17 17 17
14 13 13 13 13 13 12 12 13 13 13 13 13 13 14 14 14 14 15 14 14 14 14 15 15 15 15 15 16 16 16 16 16 16 16 16 16 16 16 16 17 17 17
14 13 13 13 13 13 13 13 13 13 13 13 13 13 13 14 14 14 14 14 14 14 14 14 14 15 15 15 15 16 16 16 16 16 16 16 16 16 16 16 16 16 16
14 14 13 13 13 13 13 13 13 13 13 13 13 13 13 13 13 13 14 14 14 15 14 14 14 14 15 15 15 15 15 16 16 16 16 16 16 16 16 16 16 16 16
14 14 14 14 13 13 13 13 13 13 13 13 13 13 13 13 13 13 13 14 14 14 14 14 14 14 14 14 15 15 15 15 15 15 15 15 16 16 16 16 16 16 16
14 14 14 14 14 14 13 13 13 13 13 13 13 13 13 13 13 13 13 13 14 14 14 14 14 14 14 14 14 14 14 14 15 15 15 15 15 15 15 15 15 15 15
15 14 14 14 14 14 14 13 13 13 13 13 13 13 13 13 13 13 13 13 13 13 14 14 13 13 13 13 14 14 14 14 14 15 15 15 15 15 15 15 15 15 15
15 14 14 14 14 14 14 13 13 13 13 13 13 13 13 13 13 13 13 13 13 13 13 13 13 13 13 13 13 13 13 14 14 14 14 14 14 14 14 15 15 15 15
15 15 15 14 14 14 14 14 14 13 13 13 13 13 13 13 13 13 13 13 13 13 13 13 13 13 13 13 13 13 13 13 13 13 13 14 14 14 14 14 14 14 14
15 15 14 14 14 14 14 14 14 14 14 14 13 13 13 13 13 13 13 13 13 13 13 13 13 13 13 13 13 13 13 13 13 13 13 13 13 13 13 13 14 14 14
15 15 15 14 14 14 14 14 14 14 14 14 14 13 13 13 13 13 13 13 13 12 13 13 13 13 13 13 12 12 12 13 13 12 12 12 12 12 12 12 13 13 13
15 15 15 15 14 14 14 14 14 14 14 14 14 14 13 13 13 13 13 13 13 13 13 12 13 13 13 12 12 12 12 12 12 12 12 12 12 12 12 12 13 13 13
15 15 15 15 15 15 15 14 14 14 14 13 13 13 13 13 13 13 13 13 12 12 13 12 12 12 12 12 12 12 12 12 12 12 12 12 12 12 12 12 12 12 12
14 15 15 15 15 15 15 15 14 14 13 13 13 13 13 13 13 13 13 13 12 12 12 12 12 12 12 12 12 12 12 12 12 12 12 12 12 12 11 11 11 12 11
14 14 14 15 14 14 14 14 14 14 14 14 13 13 14 13 13 13 13 13 12 12 12 12 12 12 12 12 12 12 11 12 12 12 11 11 11 11 11 11 10 11 11
Wind_Speed
5 5 5 4 5 6 5 5 6 5 6 6 5 5 5 6 5 5 3 3 3 3 3 4 6 7 7 7 8 9 9 8 8 8 8 8 8 8 8 10 11 11 11
5 5 5 5 5 5 5 6 6 5 5 5 5 5 5 5 5 5 5 4 4 2 2 2 4 6 7 7 8 8 9 9 9 9 9 8 8 9 9 10 10 11 11
6 6 6 6 6 6 6 6 6 5 5 4 5 5 4 4 4 5 5 4 4 5 4 4 3 4 5 6 7 8 10 10 10 10 10 10 9 9 10 10 10 11 11
6 6 5 6 6 6 5 5 5 5 4 4 4 3 3 3 3 4 4 3 3 3 5 5 4 3 3 4 6 8 9 11 11 11 10 10 10 10 10 10 11 11 11
7 6 5 5 6 5 5 5 4 5 4 4 4 3 2 2 2 3 3 3 2 2 3 5 5 4 4 5 5 7 9 11 12 12 11 11 11 11 10 10 11 11 11
6 6 5 6 7 5 5 5 5 4 4 3 3 2 2 2 2 2 2 2 2 3 3 3 5 6 6 5 6 7 9 11 12 12 12 11 11 11 11 11 11 11 11
5 5 5 6 6 6 6 6 5 4 3 2 2 2 3 3 2 2 2 2 2 2 2 3 3 4 6 8 6 7 7 8 10 11 11 11 12 12 12 12 12 12 12
5 5 6 6 6 5 6 6 5 4 3 2 2 2 3 3 3 2 2 2 1 1 2 3 3 4 5 6 8 8 7 7 8 9 10 11 12 12 12 12 12 12 12
4 5 6 6 6 6 5 5 5 4 3 2 1 2 2 1 2 2 2 2 1 1 1 2 2 3 5 5 7 9 8 7 8 9 9 10 11 12 13 13 13 12 12
3 4 5 5 6 5 5 5 5 4 4 3 1 2 2 2 1 2 2 2 2 1 1 1 2 2 3 4 5 7 8 7 7 7 8 9 11 12 13 13 13 13 12
3 3 4 4 5 4 5 5 5 5 3 3 2 2 2 2 2 1 2 3 2 1 1 0 1 1 1 3 4 6 7 7 7 7 7 8 9 11 12 13 13 13 12
2 2 3 4 4 4 4 5 4 4 4 3 3 2 2 2 2 1 1 3 2 1 1 1 0 0 1 2 3 7 7 7 7 6 6 6 8 9 10 11 12 12 12
2 2 3 3 4 4 4 4 4 4 3 3 3 3 2 2 2 2 0 2 2 2 2 1 0 0 1 2 4 6 6 7 7 7 6 7 7 7 8 9 10 11 11
3 3 3 3 3 3 3 3 3 3 3 3 3 3 2 2 2 2 1 1 2 2 2 2 1 1 1 2 3 4 6 6 6 7 7 7 7 7 6 7 7 8 8
3 3 3 3 2 3 3 3 3 3 3 3 3 2 2 1 2 2 1 1 1 2 3 3 2 2 2 2 2 3 4 5 5 6 7 7 7 7 7 6 7 6 6
4 4 4 4 3 2 2 2 3 2 2 1 2 2 2 1 1 1 1 1 2 2 2 3 2 2 1 3 2 2 4 6 6 6 6 6 6 6 6 6 6 5 5
5 5 5 5 4 3 3 2 3 2 3 2 1 1 1 2 1 1 1 1 1 1 2 2 2 2 2 2 3 3 3 3 4 5 6 6 6 6 6 6 6 5 5
6 6 5 5 5 4 4 3 3 3 3 2 2 1 1 0 1 1 1 1 1 1 2 3 3 2 2 2 2 2 2 2 3 6 5 5 6 6 6 6 6 5 4
7 7 6 7 6 5 5 5 4 4 4 3 3 2 2 1 1 0 1 1 1 1 1 2 3 2 1 2 2 2 3 2 3 5 6 6 5 5 5 5 5 5 4
8 8 8 8 7 6 6 6 5 5 5 4 4 4 3 3 2 1 1 2 1 2 2 2 2 2 2 1 2 2 2 2 2 2 3 4 6 6 6 5 5 4 4
8 8 9 9 8 7 7 7 7 6 6 6 5 5 4 2 2 2 2 2 3 3 3 3 3 3 3 3 2 2 2 3 2 1 2 3 4 4 5 6 6 5 4
9 9 10 10 10 8 7 7 9 8 8 8 7 6 6 6 6 5 4 3 3 4 3 3 3 4 4 3 2 3 3 3 3 2 2 2 2 2 2 4 6 6 5
10 10 10 10 11 11 9 11 12 10 9 9 8 7 6 6 7 7 8 8 6 4 4 4 4 4 4 4 4 4 3 3 2 2 2 3 3 3 3 5 7 6 6
10 10 11 11 11 11 11 12 12 12 11 11 10 9 9 9 8 8 7 7 7 6 6 6 5 4 3 3 4 3 3 3 3 2 3 3 3 3 3 5 8 7 7
10 11 11 12 13 13 12 13 13 11 11 13 12 11 11 11 9 9 9 8 8 6 5 2 2 2 4 2 2 4 4 5 4 4 3 3 2 2 3 4 7 8 7
10 11 11 12 13 14 11 14 15 11 12 12 11 11 11 12 9 12 12 10 10 8 7 7 6 5 5 5 5 6 5 5 4 4 4 3 3 3 3 3 4 5 5
Wind_Direction
338 335 326 329 319 321 310 299 289 288 284 275 262 258 257 251 250 247 217 167 254 265 254 227 202 195 203 207 203 197 190 185 176 168 161 154 150 144 141 140 136 133 129
337 332 326 328 327 322 319 303 295 289 278 274 266 254 252 257 251 245 247 200 190 208 219 203 190 196 205 210 206 199 192 187 181 178 173 167 160 154 149 148 144 140 137
334 334 331 333 335 327 316 305 301 290 276 268 258 256 252 253 253 242 243 237 200 172 162 158 163 190 207 211 211 201 190 184 185 183 180 176 169 164 160 157 152 147 144
341 340 337 339 336 327 322 314 302 294 281 275 267 255 247 238 247 241 230 218 220 190 154 141 153 176 197 209 214 201 192 187 187 187 183 180 176 171 167 166 162 156 152
346 350 346 339 338 334 331 324 326 309 295 286 264 243 245 244 238 236 220 203 188 187 169 152 165 173 178 195 205 196 194 191 191 189 186 183 181 176 172 171 170 166 161
351 350 343 349 346 338 338 335 328 313 303 290 272 240 226 225 215 219 229 206 184 178 181 183 186 179 176 184 193 193 192 191 191 188 187 187 184 181 176 175 175 175 171
348 352 344 352 345 344 340 339 330 315 312 311 271 223 203 207 195 181 214 212 180 174 185 194 207 198 177 176 184 179 177 184 189 186 188 189 187 185 182 180 181 181 179
343 345 347 344 349 341 344 345 340 327 332 332 299 259 204 183 182 171 182 182 173 184 201 205 193 198 199 178 157 157 160 175 184 184 189 190 188 187 186 186 187 185 184
330 337 344 343 344 343 352 345 341 339 330 329 329 300 281 213 156 154 148 145 139 181 211 207 198 199 193 181 161 158 158 167 173 181 189 190 188 188 188 188 188 189 189
309 324 337 339 341 347 348 349 357 338 329 335 337 320 317 323 243 167 147 134 122 133 182 191 199 200 188 176 161 144 156 170 174 179 190 191 191 191 192 191 192 194 195
297 307 325 332 339 345 351 351 351 347 342 342 339 333 313 298 282 242 161 145 131 107 103 148 201 190 180 167 170 150 159 172 175 173 183 187 189 192 193 193 194 196 201
287 293 307 321 332 343 347 345 346 351 348 346 334 338 332 325 333 299 183 152 141 122 106 79 209 133 104 133 125 125 152 163 167 166 167 174 181 185 192 195 197 199 203
297 309 298 310 329 339 342 339 342 350 356 351 345 345 338 338 333 313 228 149 152 150 139 137 154 166 128 124 119 129 141 153 163 163 164 174 180 184 194 202 204 205 207
305 308 292 301 315 323 328 334 332 356 358 359 359 351 339 360 341 332 319 190 169 163 168 145 152 163 137 131 116 162 144 143 155 161 162 166 168 171 186 199 203 205 206
283 280 276 282 296 309 317 318 327 345 353 351 354 353 344 13 329 335 321 275 245 195 165 156 153 140 153 125 141 168 144 135 153 163 166 169 168 168 177 181 185 192 201
267 270 263 266 263 267 276 293 303 325 317 346 323 326 343 2 12 350 328 303 290 251 173 149 139 138 120 143 112 117 122 145 156 160 165 167 168 169 170 177 180 190 201
253 252 260 266 266 262 260 254 281 286 287 286 265 298 341 350 341 346 311 285 276 257 179 146 138 134 143 127 119 114 121 141 138 140 160 166 167 168 172 178 183 188 196
257 257 256 258 258 258 263 266 264 264 272 283 281 267 275 320 301 318 292 256 261 271 217 164 156 147 136 114 114 110 106 100 108 112 139 161 165 163 164 172 175 180 187
251 252 248 250 253 251 249 249 252 257 256 259 267 266 261 245 254 219 238 231 222 184 199 186 165 145 158 146 125 111 102 92 96 113 123 132 136 146 151 157 163 162 165
247 251 253 249 251 248 246 246 248 253 254 249 247 248 255 250 254 235 224 225 218 193 189 195 177 174 170 177 184 162 138 128 122 114 104 117 124 127 126 125 126 129 133
251 250 252 251 247 246 246 248 245 247 251 248 239 237 236 249 343 295 264 236 214 213 203 199 194 194 190 191 196 190 173 157 146 162 166 155 156 149 143 132 117 108 107
254 252 250 250 247 243 222 230 250 249 248 246 243 236 224 209 207 210 233 264 278 241 222 207 208 208 205 199 194 204 198 194 177 161 203 164 178 156 134 107 94 102 100
255 252 250 250 247 242 212 214 227 248 250 251 248 239 229 220 213 216 202 206 220 239 263 254 227 219 213 203 203 207 207 217 206 149 210 182 171 159 138 102 101 105 101
257 252 251 249 248 243 215 216 217 234 245 245 242 241 234 228 217 221 217 215 217 209 214 231 238 231 219 200 208 216 203 196 193 181 216 209 181 171 150 131 116 110 104
265 258 252 249 249 246 216 213 215 235 239 240 238 235 235 232 201 202 224 223 221 213 184 196 4 61 74 89 199 197 195 201 198 181 190 215 192 189 180 161 137 133 121
270 267 261 253 251 252 225 208 216 236 239 239 236 233 226 234 203 190 218 224 225 219 203 189 193 191 196 184 204 220 214 218 208 189 172 205 198 206 198 173 167 168 159
Height
1525 1523 1522 1520 1519 1517 1516 1515 1514 1514 1513 1513 1513 1513 1513 1514 1514 1515 1516 1516 1517 1519 1520 1521 1523 1524 1525 1526 1528 1530 1531 1532 1534 1535 1536 1538 1539 1540 1541 1542 1544 1545 1546
1524 1522 1521 1519 1518 1516 1514 1513 1513 1512 1511 1511 1511 1511 1511 1512 1512 1513 1514 1515 1516 1517 1518 1520 1521 1523 1524 1526 1527 1529 1530 1532 1533 1535 1536 1538 1539 1540 1542 1544 1545 1546 1547
1523 1522 1520 1518 1516 1515 1513 1512 1511 1510 1509 1509 1509 1509 1510 1509 1510 1511 1512 1513 1514 1515 1517 1518 1520 1521 1523 1525 1526 1528 1529 1531 1533 1535 1536 1538 1539 1541 1542 1544 1546 1547 1548
1523 1521 1519 1517 1515 1514 1512 1511 1509 1508 1508 1508 1508 1508 1508 1508 1508 1509 1510 1511 1513 1514 1515 1517 1519 1520 1522 1523 1525 1526 1528 1530 1532 1534 1536 1538 1539 1541 1543 1544 1546 1548 1549
1522 1521 1518 1516 1514 1513 1511 1510 1508 1507 1506 1506 1506 1506 1506 1507 1507 1508 1509 1510 1511 1512 1514 1516 1517 1519 1521 1522 1524 1525 1527 1529 1531 1533 1535 1537 1539 1541 1543 1544 1546 1548 1549
1522 1520 1518 1516 1514 1512 1510 1509 1507 1506 1505 1505 1505 1505 1505 1505 1506 1506 1507 1508 1510 1511 1513 1514 1516 1518 1519 1521 1522 1524 1526 1528 1530 1532 1534 1536 1538 1540 1542 1544 1546 1548 1550
1521 1520 1518 1516 1513 1512 1510 1509 1507 1506 1505 1504 1504 1504 1504 1505 1505 1506 1506 1507 1509 1510 1511 1513 1515 1517 1518 1519 1521 1523 1525 1527 1529 1531 1533 1535 1537 1539 1541 1544 1545 1547 1549
1521 1520 1518 1516 1514 1511 1510 1508 1506 1505 1505 1504 1504 1504 1504 1505 1504 1505 1505 1506 1508 1509 1510 1512 1514 1515 1517 1519 1520 1522 1523 1525 1527 1529 1531 1534 1536 1538 1540 1542 1545 1547 1548
1520 1519 1517 1516 1513 1512 1510 1508 1506 1505 1505 1504 1503 1504 1504 1503 1504 1505 1505 1506 1507 1508 1509 1511 1513 1514 1516 1518 1519 1521 1522 1524 1526 1528 1530 1532 1534 1537 1539 1541 1543 1545 1547
1520 1518 1517 1515 1514 1512 1510 1508 1507 1505 1504 1504 1503 1503 1503 1503 1504 1504 1505 1505 1506 1507 1508 1510 1511 1513 1515 1516 1518 1519 1521 1523 1524 1526 1528 1530 1533 1535 1537 1540 1542 1544 1546
1520 1518 1517 1515 1514 1512 1510 1508 1507 1506 1505 1504 1504 1503 1503 1503 1503 1504 1504 1505 1506 1506 1507 1509 1510 1512 1513 1515 1517 1518 1520 1521 1523 1525 1526 1529 1531 1533 1535 1538 1540 1542 1544
1520 1518 1516 1515 1514 1512 1510 1508 1507 1506 1505 1504 1503 1503 1503 1503 1503 1503 1504 1504 1505 1506 1507 1508 1509 1511 1512 1514 1515 1517 1518 1520 1521 1523 1525 1527 1529 1531 1533 1536 1538 1540 1542
1520 1518 1516 1515 1514 1512 1510 1509 1507 1506 1505 1504 1503 1503 1503 1503 1503 1503 1504 1504 1505 1506 1506 1507 1508 1510 1511 1512 1514 1515 1517 1518 1520 1522 1523 1525 1527 1529 1531 1534 1536 1538 1540
1519 1517 1516 1515 1513 1512 1511 1509 1508 1507 1506 1505 1504 1503 1503 1503 1503 1503 1503 1504 1504 1506 1506 1507 1508 1509 1510 1511 1512 1514 1515 1517 1518 1520 1522 1523 1525 1527 1529 1531 1534 1536 1538
1518 1517 1515 1514 1513 1512 1511 1509 1509 1507 1506 1505 1504 1504 1503 1503 1503 1503 1503 1503 1505 1505 1505 1506 1507 1508 1509 1510 1511 1513 1514 1515 1517 1518 1520 1522 1523 1525 1527 1529 1531 1533 1535
1516 1515 1515 1514 1513 1512 1511 1509 1509 1507 1507 1505 1504 1504 1503 1503 1503 1502 1502 1503 1503 1504 1505 1506 1506 1507 1508 1509 1510 1511 1512 1513 1515 1516 1518 1520 1521 1523 1525 1527 1528 1530 1532
1515 1514 1514 1513 1513 1512 1511 1510 1509 1507 1507 1506 1505 1504 1503 1503 1503 1502 1502 1502 1503 1503 1504 1505 1506 1506 1507 1508 1509 1510 1511 1512 1513 1514 1516 1518 1519 1521 1522 1524 1525 1527 1528
1513 1513 1512 1512 1512 1511 1510 1509 1508 1507 1507 1506 1506 1505 1504 1503 1502 1502 1502 1502 1502 1502 1503 1504 1505 1505 1506 1507 1508 1508 1509 1511 1512 1512 1514 1515 1517 1518 1520 1521 1523 1524 1525
1511 1511 1511 1510 1510 1509 1509 1508 1507 1507 1506 1506 1505 1504 1504 1503 1502 1502 1501 1501 1501 1501 1502 1503 1504 1504 1505 1506 1507 1508 1509 1509 1510 1511 1512 1513 1515 1516 1517 1519 1520 1521 1522
1508 1508 1508 1508 1508 1507 1507 1507 1506 1506 1505 1505 1504 1503 1503 1503 1502 1502 1501 1501 1500 1501 1501 1502 1503 1503 1504 1505 1506 1507 1508 1508 1509 1510 1511 1512 1513 1514 1515 1516 1517 1518 1519
1505 1505 1505 1505 1505 1504 1504 1504 1504 1504 1503 1503 1503 1502 1501 1501 1500 1500 1500 1500 1500 1500 1501 1501 1502 1502 1503 1503 1505 1505 1507 1507 1508 1509 1510 1511 1511 1512 1513 1513 1514 1515 1516
1501 1501 1501 1501 1501 1500 1500 1500 1501 1501 1501 1501 1501 1500 1499 1498 1498 1498 1498 1498 1498 1499 1500 1500 1501 1501 1502 1503 1503 1504 1505 1507 1508 1508 1509 1510 1510 1511 1512 1512 1512 1513 1513
1497 1496 1496 1496 1496 1496 1496 1496 1497 1497 1498 1498 1498 1498 1497 1497 1496 1497 1496 1496 1496 1497 1497 1499 1499 1500 1501 1501 1502 1503 1504 1505 1506 1506 1507 1508 1509 1510 1509 1509 1509 1510 1511
1492 1491 1491 1491 1491 1491 1491 1492 1492 1493 1493 1493 1493 1494 1494 1494 1493 1494 1495 1495 1495 1495 1495 1496 1497 1498 1499 1499 1500 1501 1502 1503 1504 1504 1505 1507 1507 1508 1508 1507 1507 1508 1508
1487 1486 1486 1485 1485 1485 1486 1486 1487 1487 1488 1488 1488 1489 1489 1489 1490 1490 1491 1492 1492 1493 1493 1493 1494 1495 1496 1497 1498 1499 1500 1501 1502 1503 1503 1505 1505 1506 1506 1506 1505 1505 1505
1481 1481 1480 1479 1479 1479 1480 1480 1481 1482 1483 1483 1483 1483 1483 1484 1485 1485 1487 1488 1489 1490 1490 1490 1491 1492 1493 1494 1495 1496 1498 1499 1500 1501 1500 1502 1503 1504 1505 1504 1503 1503 1503